SCP
0 0 0 0 0 0 0 0 0 0 0 0 0 0 0 0 0 0 0 0 0 0 0 0 0 0 0 0 0 0 0 0 0 0 0 0 0 0 0 0 0 0 0 0
0 0 0 0 0 0 0 0 0 0 0 0 0 0 0 0 0 0 0 0 0 0 0 0 0 0 0 0 0 0 0 0 0 0 0 0 0 0 0 0 0 0 0 0
0 0 0 0 0 0 0 0 0 0 0 0 0 0 0 0 0 0 0 0 0 0 0 0 0 0 0 0 0 0 0 0 0 0 0 0 0 0 0 0 0 0 0 0
0 0 0 0 0 0 0 0 0 0 0 0 0 0 0 0 0 0 0 0 0 0 0 0 0 0 0 0 0 0 0 0 0 0 0 0 0 0 0 0 0 0 0 0
0 0 0 0 0 0 0 0 0 0 0 0 0 0 0 0 0 0 0 0 0 0 0 0 0 0 0 0 0 0 0 0 0 0 0 0 0 0 0 0 0 0 0 0
0 0 0 0 0 0 0 0 0 0 0 0 0 0 0 0 0 0 0 0 0 0 0 0 0 0 0 0 0 0 0 0 0 0 0 0 0 0 0 0 0 0 0 0
0 0 0 0 0 0 0 0 0 0 0 0 0 0 0 0 0 0 0 0 0 0 0 0 0 0 0 0 0 0 0 0 0 0 0 0 0 0 0 0 0 0 0 0
0 0 0 0 0 0 0 0 0 0 0 0 0 0 0 0 0 0 0 0 0 0 0 0 0 0 0 0 0 0 0 0 0 0 0 0 0 0 0 0 0 0 0 0
0 0 0 0 0 0 0 0 0 0 0 0 0 0 0 0 0 0 0 0 0 0 0 0 0 0 0 0 0 0 0 0 0 0 0 0 0 0 0 0 0 0 0 0
0 0 0 0 0 0 0 0 0 0 0 0 0 0 0 0 0 0 0 0 0 0 0 0 0 0 0 0 0 0 0 0 0 0 0 0 0 0 0 0 0 0 0 0
0 0 0 0 0 0 0 0 0 0 0 0 0 0 0 0 0 0 0 0 0 0 0 0 0 0 0 0 0 0 0 0 0 0 0 0 0 0 0 0 0 0 0 0
0 0 0 0 0 0 0 0 0 0 0 0 0 0 0 0 0 0 0 0 0 0 0 0 0 0 0 0 0 0 0 0 0 0 0 0 0 0 0 0 0 0 0 0
0 0 0 0 0 0 0 0 0 0 0 0 0 0 0 0 0 0 0 0 0 0 0 0 0 0 0 0 0 0 0 0 0 0 0 0 0 0 0 0 0 0 0 0
0 0 0 0 0 0 0 0 0 0 0 0 0 0 0 0 0 0 0 0 0 0 0 0 0 0 0 0 0 0 0 0 0 0 0 0 0 0 0 0 0 0 0 0
0 0 0 0 0 0 0 0 0 0 0 0 0 0 0 0 0 0 0 0 0 0 0 0 0 0 0 0 0 0 0 0 0 0 0 0 0 0 0 0 0 0 0 0
0 0 0 0 0 0 0 0 0 0 0 0 0 0 0 0 0 0 0 0 0 0 0 -0 0 0 0 0 0 0 0 0 0 0 0 0 0 0 0 0 0 0 0 0
0 0 0 0 0 0 0 0 0 0 0 0 0 0 0 0 0 0 0 0 0 0 0 -0 0 0 0 0 0 0 0 0 0 0 0 0 0 0 0 0 0 0 0 0
0 0 0 0 0 0 0 0 0 -0 -0 0 0 0 0 0 0 0 0 0 0 0 0 0 0 0 0 0 0 0 0 0 0 0 0 0 0 0 0 0 0 0 0 0
0 0 0 0 0 0 0 0 0 0 0 0 0 0 0 0 0 0 0 0 0 0 0 0 0 0 0 0 0 0 0 0 0 0 0 0 0 0 0 0 0 0 0 0
0 0 0 0 0 0 0 0 0 0 0 0 0 0 0 0 0 -0 0 0 0 0 0 0 0 0 0 0 0 0 0 0 0 0 0 0 0 0 0 0 0 0 0 0
0 0 0 0 0 0 0 0 0 0 0 0 0 0 0 0 0 0 0 0 0 0 0 0 0 0 0 0 0 0 0 0 0 0 0 0 0 0 0 0 0 0 0 0
0 0 0 0 0 0 0 0 0 0 0 0 0 0 0 0 0 0 0 0 0 0 0 0 0 0 0 0 0 0 0 0 0 0 0 0 0 0 0 0 0 0 0 0
0 0 0 0 0 0 0 0 0 0 0 0 0 0 0 0 0 0 0 0 0 0 0 0 0 0 0 0 0 0 0 0 0 0 0 0 0 0 0 0 0 0 0 0
0 0 0 0 0 0 0 0 0 0 0 0 0 0 0 0 0 0 0 0 0 -0 0 0 0 0 0 0 0 0 0 0 0 0 0 0 0 0 0 0 0 0 0 0
0 0 0 0 0 0 0 0 0 0 0 0 0 0 0 0 0 0 0 -0 -0 -0 0 0 0 0 0 0 0 0 0 0 0 0 0 0 0 0 0 0 0 0 0 0
0 0 0 0 0 0 0 0 0 0 0 0 0 0 0 0 0 0 0 -0 -0 -0 0 0 0 0 0 0 0 0 0 0 0 0 0 0 0 0 0 0 0 0 0 0
Wind_Speed
5 4 5 6 8 6 6 6 8 5 1 3 7 9 8 5 5 5 5 5 4 4 3 4 3 3 3 3 2 2 2 2 2 2 2 2 2 1 0 0 1 2 2 2
3 7 7 5 5 6 7 8 7 5 2 3 6 10 8 7 7 6 6 5 5 4 4 4 4 3 3 3 2 2 2 2 2 2 2 2 1 1 1 1 1 1 1 2
6 3 3 4 4 6 8 7 6 5 5 5 5 8 7 5 4 5 4 4 4 4 4 4 3 3 3 3 3 2 2 2 2 2 2 1 1 0 1 1 1 1 1 2
5 5 3 5 6 5 6 4 4 4 3 4 4 6 6 6 5 6 5 4 4 3 3 4 3 3 2 2 2 2 2 2 2 2 2 2 2 2 2 2 1 2 1 1
3 2 4 6 5 4 2 2 3 5 4 5 5 5 7 5 6 6 5 4 3 2 3 3 3 3 2 2 2 2 2 2 2 2 3 3 2 1 1 1 2 2 1 1
5 3 2 3 2 2 1 2 3 3 2 6 8 7 6 5 6 5 4 3 3 2 2 2 2 2 2 1 2 2 2 1 1 2 2 3 2 2 2 1 1 1 1 1
5 6 3 1 2 2 3 1 1 2 4 7 4 5 6 1 3 4 4 3 3 3 3 2 2 2 2 1 1 1 2 1 1 1 1 2 2 3 3 2 2 1 1 1
4 4 6 4 3 3 5 4 4 4 4 3 2 6 4 2 3 3 3 3 3 3 2 2 2 2 2 1 1 1 1 1 1 1 1 1 2 2 1 1 2 1 1 1
3 3 2 3 2 2 3 4 1 1 3 3 6 4 2 2 3 3 2 3 3 2 2 1 2 2 1 1 1 2 2 1 1 1 1 1 1 1 1 1 1 1 1 1
2 3 3 2 2 3 3 2 2 3 3 5 5 5 4 4 3 2 2 2 1 1 1 1 2 1 1 1 1 1 2 2 1 1 1 1 1 1 1 1 1 1 1 1
2 2 2 3 6 6 4 3 3 3 3 3 4 4 1 5 6 4 3 2 2 1 1 1 1 1 1 1 1 2 2 2 1 2 1 0 0 0 1 1 1 1 1 1
2 1 3 4 2 2 4 5 5 4 5 4 3 6 0 3 3 3 2 2 1 1 1 1 2 1 1 1 2 2 2 1 1 2 1 1 1 1 1 1 0 1 1 1
2 3 2 2 2 2 4 4 4 2 1 4 5 6 1 2 1 2 2 1 1 1 0 1 1 1 2 1 1 2 1 1 1 2 1 1 1 1 0 0 0 0 0 1
1 3 6 7 3 3 4 5 6 5 5 5 8 7 4 2 2 1 2 2 2 1 1 1 1 1 1 1 1 1 1 1 1 2 1 1 1 1 0 0 0 0 0 1
1 4 5 7 7 4 6 8 8 10 9 7 7 7 7 5 3 2 2 1 1 1 1 1 0 1 1 1 1 1 1 1 1 1 1 1 1 1 1 0 0 1 1 1
2 4 3 7 7 6 8 9 11 11 11 11 10 11 5 2 1 2 2 2 2 2 1 1 1 1 1 1 0 0 1 1 1 1 1 1 1 1 1 1 1 1 1 1
3 3 2 4 2 3 9 10 12 9 8 8 11 9 2 2 2 2 2 2 2 2 2 1 1 1 1 1 1 1 1 0 1 0 0 0 1 1 1 1 1 1 1 1
5 3 3 3 1 8 7 2 6 9 8 7 6 5 3 2 2 2 2 2 2 2 2 1 1 1 1 1 1 1 1 0 1 1 0 0 0 0 1 1 1 1 1 1
5 5 3 3 4 7 4 2 3 5 6 6 7 4 1 1 2 2 1 1 2 2 1 1 1 1 1 1 1 1 0 0 0 0 1 1 1 1 1 1 1 1 1 1
1 3 4 4 4 6 3 1 1 2 4 3 3 3 2 1 1 3 0 1 2 2 1 1 1 1 1 1 1 1 1 0 1 1 1 1 1 1 2 2 2 1 1 2
2 3 5 6 6 6 2 1 2 3 5 1 1 2 2 3 4 2 2 2 2 2 2 2 1 1 1 1 1 1 1 1 1 0 1 1 1 1 2 1 1 1 1 2
5 4 5 4 5 7 1 3 4 4 1 1 1 1 1 1 1 1 1 2 2 2 2 2 1 1 0 1 1 1 1 1 0 0 1 1 1 1 1 1 1 1 1 1
5 6 4 6 5 2 3 3 3 1 2 2 1 1 2 2 1 1 1 1 1 1 1 1 1 1 0 0 1 1 1 1 0 0 1 1 1 1 1 1 1 1 1 1
4 2 2 4 5 4 4 3 3 2 2 2 1 2 2 3 3 2 2 1 1 1 1 1 1 1 0 1 0 1 1 1 1 1 1 1 1 1 1 1 1 1 1 1
4 3 4 6 5 4 5 4 3 2 1 1 1 1 3 3 3 3 2 2 2 1 1 1 1 1 1 0 1 1 0 0 1 1 1 1 1 1 1 1 1 1 2 2
5 6 6 7 5 4 4 3 2 2 2 2 1 1 1 3 3 3 2 2 2 1 1 1 1 1 1 0 1 1 1 0 1 1 1 1 1 1 1 1 2 3 3 5
Wind_Direction
194 215 223 223 224 258 282 274 271 275 247 240 249 258 257 235 224 230 224 210 196 193 170 152 154 146 140 140 143 158 156 157 154 163 167 177 196 184 161 133 136 144 144 140
214 234 241 249 249 262 269 266 273 288 274 267 266 266 258 239 226 223 220 205 191 185 167 159 163 159 156 158 166 179 176 171 170 177 182 187 186 177 163 156 135 145 147 148
224 246 238 239 241 248 255 256 264 278 304 270 272 273 243 235 226 219 217 196 187 179 174 165 162 158 157 166 181 194 192 181 172 161 150 147 140 137 142 171 156 148 155 157
238 243 243 232 240 239 256 274 279 275 278 265 216 273 249 220 222 219 209 194 180 170 167 163 161 161 170 186 183 189 188 183 166 158 163 166 181 193 197 184 168 161 156 146
233 214 229 236 243 239 245 330 281 265 258 275 239 247 261 207 223 223 203 180 149 147 140 153 156 154 149 164 170 178 173 176 168 159 172 178 189 193 156 144 143 142 139 139
245 245 243 251 275 243 221 280 264 252 246 254 224 218 260 210 208 198 185 160 137 127 117 118 120 114 108 109 134 147 152 159 153 153 175 180 178 178 170 165 160 156 150 140
240 216 203 208 213 207 201 173 259 243 223 241 210 215 245 198 115 152 170 158 141 133 123 120 110 107 121 117 134 142 151 159 156 152 168 182 182 183 184 183 178 177 170 161
234 232 187 196 209 204 209 188 194 229 242 271 233 230 236 128 104 102 112 125 122 114 115 129 138 136 141 141 149 153 168 169 159 158 176 176 174 177 176 180 182 190 182 176
234 237 137 184 236 218 196 210 220 261 271 265 243 234 222 107 92 85 86 109 120 123 120 130 125 125 127 144 172 168 168 168 162 153 141 148 152 167 170 166 143 167 172 167
277 261 208 176 221 254 251 201 147 193 229 255 251 229 219 176 183 166 155 151 148 131 133 133 120 119 126 148 154 128 130 129 112 94 73 103 146 159 148 133 143 163 166 164
258 219 218 189 205 204 191 198 199 216 231 232 263 257 207 173 174 173 186 191 175 172 183 151 120 122 129 121 130 114 110 104 96 79 43 102 107 117 120 130 154 172 165 172
198 196 246 230 213 250 220 207 186 196 233 232 251 265 21 114 126 138 162 171 151 151 165 130 126 133 132 126 125 115 106 101 101 95 65 90 80 54 70 94 143 187 181 185
164 169 245 251 226 238 243 228 210 207 228 224 227 256 343 89 83 129 149 141 122 115 101 104 112 137 126 110 100 101 99 102 103 96 68 85 95 88 62 9 240 258 203 212
194 202 212 227 236 193 228 230 211 194 213 236 233 251 268 249 246 200 155 154 154 167 143 107 76 122 121 106 102 98 97 96 93 97 103 127 128 146 160 264 272 253 251 248
181 232 242 265 276 241 233 225 214 217 221 229 250 257 252 234 223 201 181 179 177 187 174 148 119 112 118 99 75 76 75 81 101 123 123 171 175 153 134 181 248 253 267 279
204 248 261 266 251 245 252 234 221 229 235 245 262 271 267 246 190 197 197 197 209 222 222 204 202 157 136 137 142 123 78 59 101 118 143 196 182 169 168 206 241 255 265 275
202 207 243 260 228 275 252 226 214 216 217 216 238 249 269 271 228 221 210 199 208 221 234 213 199 187 168 173 175 167 166 103 81 96 287 217 193 198 200 221 239 256 260 275
200 204 232 258 232 237 241 191 201 216 229 221 240 253 237 233 234 229 184 188 212 219 219 206 172 157 164 170 166 165 156 176 171 166 274 240 192 226 240 233 248 264 260 263
207 194 219 230 240 263 263 219 188 202 247 226 231 245 253 78 358 289 189 177 194 191 180 172 152 149 158 167 170 148 177 210 186 193 230 237 224 237 252 250 255 263 262 269
205 191 215 228 236 243 252 212 196 137 267 274 220 215 175 123 236 250 174 83 86 78 88 93 95 103 133 166 144 139 187 203 234 249 260 263 251 238 249 253 261 271 263 263
165 198 220 234 247 262 268 201 122 169 250 287 196 198 177 199 213 191 113 86 85 74 77 85 95 105 139 162 146 159 199 237 235 256 277 275 262 245 248 256 262 261 267 275
184 188 206 209 226 252 171 141 185 224 250 259 236 202 173 176 140 112 101 104 92 78 72 80 88 79 100 141 149 175 233 246 197 232 258 268 271 262 247 232 254 250 246 261
210 208 207 205 220 248 178 202 233 246 265 282 265 218 167 171 187 181 174 151 132 118 95 88 112 100 24 104 162 188 233 221 186 280 281 271 273 268 237 217 234 250 244 251
251 237 239 262 267 263 250 263 269 265 261 268 244 202 180 192 191 189 181 166 153 127 113 113 126 149 288 319 7 202 212 184 162 218 270 276 282 285 271 254 235 223 236 251
240 215 240 256 269 287 265 254 262 284 297 282 266 219 186 177 189 190 186 181 174 157 148 157 173 187 246 306 355 335 303 150 182 229 262 287 287 267 286 298 280 264 247 245
231 220 224 245 248 241 261 271 267 261 262 254 230 239 175 168 178 177 184 183 173 173 166 172 193 199 237 304 320 317 318 237 204 257 280 287 288 286 275 290 316 299 275 279